Temp
31 31 31 30 28 23 21 20 19 18 18 18 18 17 17 16 15 14 14 14 15 16 15 14 15 15 15 15 15 16 16 17
31 31 31 30 29 23 21 20 19 18 18 17 17 16 17 16 15 14 13 13 14 14 13 14 15 15 14 14 14 15 15 15
30 30 30 29 28 23 21 19 18 17 18 17 17 16 16 16 15 13 13 13 13 14 13 13 14 13 12 13 14 14 13 13
26 25 25 27 26 23 21 19 18 17 18 17 17 16 16 15 13 12 12 12 12 13 13 13 12 12 12 12 12 13 13 12
24 23 24 26 26 23 21 20 18 17 18 17 17 16 15 14 12 12 11 11 12 11 11 11 12 11 10 10 10 11 12 12
21 21 22 23 24 23 20 19 19 18 17 18 17 17 16 14 12 11 11 11 10 10 10 10 10 9 9 8 9 9 10 11
20 21 21 22 23 22 20 19 18 18 17 18 17 17 16 14 12 11 10 10 9 9 9 9 8 7 7 7 7 7 8 8
19 19 19 19 16 17 18 18 17 17 17 17 17 17 16 14 11 10 10 9 8 8 8 7 6 6 5 5 6 6 6 7
19 18 17 18 18 16 15 16 15 16 16 15 15 16 15 13 11 10 10 9 8 7 6 5 5 4 4 5 5 4 4 5
18 17 16 17 17 17 15 14 14 13 13 13 13 13 13 11 11 10 9 6 6 5 4 4 3 3 3 3 4 3 3 3
17 16 15 15 15 11 13 13 11 11 11 11 11 10 9 8 8 6 6 4 4 4 3 2 2 2 2 2 2 3 3 3
17 16 15 14 11 9 8 7 7 7 7 7 8 7 7 6 5 4 4 3 2 1 1 1 1 1 1 2 2 2 2 2
16 15 14 13 11 9 7 6 5 5 6 5 5 5 5 4 3 3 2 2 1 1 0 -0 -0 -0 0 1 1 1 1 1
17 15 14 12 10 9 7 6 5 5 4 4 3 3 3 2 2 2 1 1 0 -0 -1 -1 -1 -1 -2 -1 -1 0 1 1
16 12 10 12 10 8 7 5 4 3 3 3 2 2 2 1 1 1 0 -0 -1 -1 -2 -2 -2 -2 -1 -0 0 0 0 -0
17 15 12 12 10 9 8 6 4 3 3 2 2 1 1 1 0 -0 -1 -1 -1 -2 -2 -2 -1 -1 -1 -0 -0 -0 -1 -1
19 18 12 13 11 9 7 6 4 4 3 2 1 1 0 -0 -0 -1 -1 -2 -2 -2 -2 -2 -1 -2 -1 -0 -0 -1 -1 -1
13 15 15 13 12 9 8 6 5 4 2 1 0 0 -0 -0 -1 -1 -1 -2 -2 -3 -2 -2 -4 -4 -2 -1 -1 -1 -0 -1
14 15 16 14 12 10 8 6 4 2 1 0 0 -0 -1 -1 -1 -2 -2 -2 -3 -3 -3 -4 -5 -5 -3 -2 -1 -1 -1 -1
Height
682 684 687 690 692 697 707 719 729 739 749 751 755 757 762 765 770 773 774 776 779 782 784 788 791 793 796 798 800 800 800 802
676 675 680 685 691 694 699 708 720 732 742 748 752 753 758 761 766 769 773 775 777 779 782 786 790 793 795 798 800 802 802 802
667 670 669 672 682 693 702 709 716 724 733 742 748 752 756 761 764 769 772 774 776 778 781 784 786 788 793 796 799 801 802 803
669 668 669 664 670 679 691 705 717 725 732 740 746 752 756 758 761 766 771 774 777 778 782 784 786 789 793 794 795 798 800 803
675 676 674 668 668 678 687 694 704 718 730 736 740 744 750 755 760 765 768 772 774 777 780 783 786 789 793 795 796 797 798 801
680 679 679 677 675 678 684 693 702 710 717 727 735 741 747 753 759 763 768 771 773 776 779 782 784 786 789 792 795 797 798 799
676 677 681 683 681 682 686 695 698 709 719 721 724 735 742 747 754 761 767 770 773 776 779 781 784 786 788 791 794 797 798 802
680 679 679 684 689 689 693 696 701 705 713 722 726 727 735 742 749 758 764 769 773 776 778 780 783 786 789 790 793 796 799 801
683 683 687 685 688 695 699 700 702 706 711 718 724 731 732 737 743 752 761 768 773 777 778 781 783 786 787 789 792 798 800 800
693 692 691 694 692 695 704 706 705 706 712 715 724 729 734 738 742 748 755 762 769 776 781 785 786 789 784 786 788 797 800 802
696 702 700 696 697 699 704 709 710 710 712 715 720 728 733 740 741 748 755 763 770 777 779 783 786 787 790 786 791 794 798 804
692 699 705 699 703 705 706 711 714 716 718 720 722 727 732 739 744 751 755 766 772 776 778 781 789 791 791 792 793 796 798 804
690 695 702 703 705 710 712 714 718 720 723 726 728 732 734 739 745 752 757 767 772 775 778 783 785 782 787 790 798 802 802 807
688 693 700 705 712 713 715 718 719 723 729 731 733 737 740 742 747 753 759 766 771 776 780 777 777 783 787 792 797 803 804 805
691 693 700 706 716 717 719 721 721 726 730 736 736 739 743 744 751 756 760 766 771 774 776 779 780 784 790 795 797 802 805 807
680 685 685 702 713 717 720 718 723 729 735 737 738 742 747 748 753 760 763 767 772 773 777 780 783 786 790 793 797 802 805 806
674 669 690 697 704 711 718 715 725 730 736 739 740 743 747 749 754 761 766 769 772 775 778 781 784 786 791 792 794 803 803 805
679 683 687 695 698 700 703 711 720 727 731 736 738 742 746 751 757 761 764 770 771 773 778 782 784 785 790 791 798 800 801 807
683 687 685 687 692 696 702 709 714 722 730 733 737 742 746 750 755 759 763 767 770 773 778 779 782 786 789 794 796 798 801 805
Wind_Speed
20 21 21 23 32 41 43 38 35 33 27 28 25 28 23 23 22 22 22 21 20 18 16 16 13 11 10 8 8 8 8 9
20 20 24 25 18 36 42 41 37 36 27 27 25 27 25 25 23 22 21 20 20 17 16 16 12 12 10 8 8 7 6 5
16 22 25 27 25 31 33 35 36 36 31 29 25 26 23 22 21 21 18 19 19 17 16 15 13 13 10 8 8 7 6 2
7 10 19 25 28 35 37 34 31 31 28 27 24 23 24 22 23 21 18 17 17 15 15 15 14 12 11 8 5 4 9 3
5 9 9 5 20 28 36 38 36 33 30 28 27 25 23 21 21 21 20 18 16 17 15 16 13 13 10 7 6 4 3 12
6 6 12 20 16 17 32 33 34 35 36 28 29 24 23 23 23 24 21 18 18 18 18 17 17 16 14 12 10 8 10 10
3 6 10 15 6 13 25 26 29 31 34 32 32 28 25 25 25 25 22 20 18 18 18 18 17 17 15 14 13 12 12 12
3 6 6 11 20 13 15 19 22 29 33 33 24 32 28 29 31 25 23 21 19 19 20 20 19 18 17 16 16 16 13 13
5 7 4 5 6 10 8 12 16 23 27 25 19 25 21 28 31 27 23 21 21 19 21 22 20 19 19 19 17 15 13 14
6 7 7 5 5 2 7 6 13 17 19 21 20 21 20 28 29 31 27 29 27 22 21 19 20 18 19 18 18 15 14 12
6 6 6 7 9 20 8 7 12 15 20 22 21 23 28 29 33 30 29 28 24 23 22 17 15 15 13 17 18 15 15 12
7 7 6 11 18 17 19 18 16 17 19 23 29 32 32 31 31 31 29 25 23 22 21 21 18 18 15 15 15 14 15 13
6 6 6 9 12 10 12 15 15 16 18 22 26 30 32 32 32 31 30 27 24 24 24 23 18 17 16 17 12 13 13 12
6 7 5 9 7 10 10 11 15 15 19 23 24 23 28 29 31 31 31 29 27 24 22 22 21 19 17 15 16 14 13 12
14 10 6 12 8 11 11 13 14 17 22 22 24 26 28 30 30 31 30 28 25 21 17 17 18 17 16 16 16 15 14 13
15 13 10 12 14 11 8 12 15 18 19 22 23 25 27 28 25 27 26 24 22 21 21 20 19 18 16 16 17 16 15 14
10 2 13 11 17 19 17 16 17 20 18 20 24 27 27 28 28 27 24 21 20 21 20 19 18 13 19 19 18 17 16 15
11 6 8 10 19 26 24 25 23 20 24 25 28 30 30 30 29 28 26 23 23 20 19 19 16 13 20 20 19 16 15 14
10 5 2 16 18 22 24 27 29 26 25 27 30 30 30 31 30 28 26 25 25 24 21 17 13 14 21 19 17 16 16 13
Wind_Direction
237 232 232 241 193 169 170 175 179 182 193 183 188 181 182 174 174 183 175 170 164 163 162 161 151 158 153 158 155 153 147 157
253 237 226 214 218 164 168 171 176 175 189 185 183 177 182 172 175 181 172 172 165 160 163 153 156 157 155 143 138 138 124 170
232 240 219 202 181 164 169 172 172 176 184 189 187 177 178 170 175 171 173 168 164 157 158 155 155 156 140 153 162 141 107 157
354 352 328 179 171 165 167 170 175 180 184 185 182 181 174 167 161 162 168 165 157 162 156 155 138 142 142 137 151 139 157 107
5 349 336 196 175 165 170 171 176 181 188 189 186 182 177 168 159 161 162 163 158 151 151 142 138 135 124 121 129 95 73 141
18 6 343 327 173 167 170 175 177 180 188 192 189 185 180 168 163 160 159 157 152 148 146 145 135 140 131 120 115 105 81 108
31 34 2 335 143 170 166 172 173 182 189 198 186 186 175 161 160 153 154 149 148 148 144 141 143 134 133 125 116 112 107 101
75 64 26 11 53 88 152 169 177 181 186 200 195 184 180 167 153 155 155 154 150 147 142 137 132 130 121 120 114 114 113 105
108 92 60 25 65 89 107 154 167 176 185 191 188 184 176 161 155 159 158 157 150 147 145 135 133 131 128 112 106 98 103 103
62 78 62 47 37 82 140 119 167 180 179 172 175 171 170 154 157 153 154 147 144 146 146 144 136 134 126 131 122 115 112 105
106 67 70 78 70 55 86 131 141 152 165 167 160 156 147 144 143 141 144 145 151 154 145 138 130 125 129 120 126 117 115 117
97 88 75 75 70 70 82 91 97 113 130 140 148 146 147 146 141 146 146 153 155 149 141 135 136 133 122 121 114 125 124 125
65 86 90 87 95 89 91 104 111 125 138 138 136 141 143 141 139 144 148 144 146 148 144 143 136 123 124 120 126 134 126 135
145 120 114 111 125 119 123 129 129 141 144 140 135 134 136 136 141 147 153 154 154 151 146 139 134 133 134 137 137 139 139 130
290 127 149 125 141 143 152 139 139 145 149 146 141 142 143 143 146 149 156 159 159 151 144 137 127 132 143 145 142 144 137 134
211 164 141 153 149 156 161 148 152 155 152 151 147 148 150 148 146 160 161 155 150 146 140 137 140 140 144 146 149 150 146 138
286 132 143 166 158 162 166 154 169 165 161 155 154 156 158 157 158 160 155 150 148 143 141 140 144 148 155 154 148 157 149 145
30 351 148 173 175 169 169 166 168 171 165 162 164 168 168 168 163 158 154 151 147 142 144 148 155 168 160 154 156 154 150 153
155 219 43 178 183 170 167 165 162 168 169 171 175 172 167 165 160 157 156 156 152 153 150 155 156 160 163 161 151 145 142 143